Dothan, AL

4:35 PM CST on November 19, 2017 (GMT -0600)
Dothan Regional

Weather History for KDHN - December, 2012

Change the Weather History Date:

Thursday, December 6, 2012

  Actual Average Record
Temperature  
Mean Temperature 62 °F 53 °F  
Max Temperature 74 °F 65 °F 82 °F (1951)
Min Temperature 50 °F 42 °F 28 °F (2010)
Degree Days  
Heating Degree Days 3 12  
Month to date heating degree days 13 70  
Since 1 July heating degree days 339 347  
Growing Degree Days 12 (Base 50)    
Moisture  
Dew Point 53 °F    
Average Humidity 73    
Maximum Humidity 90    
Minimum Humidity 51    
Precipitation  
Precipitation 0.00 in 0.18 in 1.75 in (1953)
Month to date precipitation 0.00 1.14  
Year to date precipitation 36.83 50.72  
Sea Level Pressure  
Sea Level Pressure 30.08 in    
Wind  
Wind Speed 5 mph (ENE)    
Max Wind Speed 10 mph    
Max Gust Speed -    
Visibility 10 miles    
Events      
T = Trace of Precipitation, MM = Missing Value Source: NWS Daily Summary

Daily Weather History Graph

Daily Weather History Graph

Search for Another Location

Airport or City:

Trip Planner

Search our weather history database for the weather conditions in past years. The results will help you decide how hot, cold, wet, or windy it might be!

Date:

Astronomy

Dec. 06, 2012 Rise Set
Actual Time 6:27 AM CST 4:38 PM CST
Civil Twilight 6:00 AM CST 5:05 PM CST
Nautical Twilight 5:30 AM CST 5:35 PM CST
Astronomical Twilight 5:01 AM CST 6:05 PM CST
Moon No Moon Rise 11:41 AM CST (12/6)
Length of Visible Light 11h 04m
Length of Day
10h 11m
Waning Gibbous, 49% of the Moon is Illuminated
Dec 6
Waning Gibbous
Dec 13
New
Dec 19
First Quarter
Dec 28
Full
Jan 4
Last Quarter

Hourly Weather History & Observations

Time (CST) Temp. Dew Point Humidity Pressure Visibility Wind Dir Wind Speed Gust Speed Precip Events Conditions
12:53 AM 57.0 °F 48.9 °F 74% 30.10 in 10.0 mi East 3.5 mph - N/A   Clear
1:53 AM 55.9 °F 48.9 °F 77% 30.09 in 10.0 mi East 4.6 mph - N/A   Clear
2:53 AM 54.0 °F 48.9 °F 83% 30.09 in 10.0 mi East 4.6 mph - N/A   Clear
3:53 AM 55.9 °F 48.9 °F 77% 30.08 in 10.0 mi East 4.6 mph - N/A   Clear
4:53 AM 51.1 °F 48.0 °F 89% 30.09 in 10.0 mi Calm Calm - N/A   Clear
5:53 AM 51.1 °F 48.0 °F 89% 30.11 in 10.0 mi NE 4.6 mph - N/A   Clear
6:53 AM 51.1 °F 48.0 °F 89% 30.12 in 10.0 mi Calm Calm - N/A   Clear
7:53 AM 54.0 °F 51.1 °F 90% 30.13 in 10.0 mi NE 4.6 mph - N/A   Mostly Cloudy
8:53 AM 62.1 °F 54.0 °F 75% 30.12 in 10.0 mi East 4.6 mph - N/A   Clear
9:53 AM 66.9 °F 55.0 °F 66% 30.12 in 10.0 mi East 5.8 mph - N/A   Clear
10:53 AM 70.0 °F 54.0 °F 57% 30.09 in 10.0 mi ESE 8.1 mph - N/A   Clear
11:53 AM 71.1 °F 54.0 °F 55% 30.07 in 10.0 mi East 8.1 mph - N/A   Partly Cloudy
12:53 PM 71.1 °F 54.0 °F 55% 30.05 in 10.0 mi ESE 6.9 mph - N/A   Scattered Clouds
1:53 PM 73.0 °F 54.0 °F 51% 30.03 in 10.0 mi East 5.8 mph - N/A   Scattered Clouds
2:53 PM 72.0 °F 55.0 °F 55% 30.03 in 10.0 mi NE 6.9 mph - N/A   Overcast
3:53 PM 71.1 °F 55.9 °F 59% 30.03 in 10.0 mi NE 8.1 mph - N/A   Mostly Cloudy
4:53 PM 66.9 °F 55.9 °F 68% 30.04 in 10.0 mi ENE 4.6 mph - N/A   Partly Cloudy
5:53 PM 64.9 °F 55.9 °F 73% 30.05 in 10.0 mi NE 5.8 mph - N/A   Clear
7:53 PM 64.0 °F 55.0 °F 73% 30.06 in 10.0 mi East 9.2 mph - N/A   Partly Cloudy
8:53 PM 62.1 °F 54.0 °F 75% 30.06 in 10.0 mi ENE 8.1 mph - N/A   Scattered Clouds
9:53 PM 60.1 °F 55.0 °F 83% 30.07 in 10.0 mi ENE 6.9 mph - N/A   Clear
10:45 PM 60.8 °F 55.4 °F 82% 30.08 in 10.0 mi East 8.1 mph - N/A   Mostly Cloudy
10:53 PM 61.0 °F 55.9 °F 83% 30.07 in 10.0 mi East 9.2 mph - N/A   Mostly Cloudy
11:53 PM 61.0 °F 55.9 °F 83% 30.06 in 10.0 mi East 10.4 mph - N/A   Overcast